TimeCDT,TemperatureF,Dew PointF,Humidity,Sea Level PressureIn,VisibilityMPH,Wind Direction,Wind SpeedMPH,Gust SpeedMPH,PrecipitationIn,Events,Conditions,WindDirDegrees,DateUTC
12:15 AM,44.6,44.6,100,29.97,10.0,Calm,Calm,-,N/A,,Clear,0,2013-10-03 05:15:00
12:34 AM,44.6,44.6,100,29.97,10.0,Calm,Calm,-,N/A,,Clear,0,2013-10-03 05:34:00
12:55 AM,42.8,42.8,100,29.97,10.0,Calm,Calm,-,N/A,,Clear,0,2013-10-03 05:55:00
1:15 AM,46.4,46.4,100,29.96,10.0,ESE,3.5,-,N/A,,Clear,120,2013-10-03 06:15:00
1:34 AM,42.8,42.8,100,29.96,10.0,NNW,10.4,-,N/A,,Clear,340,2013-10-03 06:34:00
1:55 AM,44.6,44.6,100,29.96,10.0,North,8.1,-,N/A,,Clear,360,2013-10-03 06:55:00
2:15 AM,44.6,44.6,100,29.96,10.0,North,6.9,-,N/A,,Clear,360,2013-10-03 07:15:00
2:34 AM,44.6,44.6,100,29.96,10.0,North,6.9,-,N/A,,Clear,10,2013-10-03 07:34:00
2:55 AM,44.6,44.6,100,29.97,10.0,North,5.8,-,N/A,,Clear,10,2013-10-03 07:55:00
3:14 AM,44.6,44.6,100,29.97,10.0,Calm,Calm,-,N/A,,Clear,0,2013-10-03 08:14:00
3:35 AM,44.6,44.6,100,29.96,10.0,NNE,3.5,-,N/A,,Clear,20,2013-10-03 08:35:00
3:55 AM,46.4,46.4,100,29.96,10.0,NE,6.9,-,N/A,,Clear,40,2013-10-03 08:55:00
4:14 AM,46.4,46.4,100,29.96,10.0,NE,5.8,-,N/A,,Clear,50,2013-10-03 09:14:00
4:35 AM,46.4,46.4,100,29.97,10.0,NE,6.9,-,N/A,,Clear,40,2013-10-03 09:35:00
4:55 AM,46.4,46.4,100,29.97,10.0,NNE,8.1,-,N/A,,Clear,30,2013-10-03 09:55:00
5:14 AM,46.4,46.4,100,29.97,10.0,NE,5.8,-,N/A,,Clear,50,2013-10-03 10:14:00
5:35 AM,46.4,46.4,100,29.97,10.0,ENE,5.8,-,N/A,,Clear,60,2013-10-03 10:35:00
5:55 AM,46.4,46.4,100,29.97,10.0,NNE,6.9,-,N/A,,Clear,30,2013-10-03 10:55:00
6:14 AM,48.2,48.2,100,29.96,10.0,NE,9.2,-,N/A,,Clear,40,2013-10-03 11:14:00
6:35 AM,48.2,48.2,100,29.98,10.0,ENE,4.6,-,N/A,,Clear,70,2013-10-03 11:35:00
6:54 AM,48.2,48.2,100,29.96,10.0,NE,8.1,-,N/A,,Clear,40,2013-10-03 11:54:00
7:15 AM,48.2,48.2,100,29.96,10.0,NNE,6.9,-,N/A,,Clear,30,2013-10-03 12:15:00
7:35 AM,48.2,48.2,100,29.97,10.0,North,4.6,-,N/A,,Clear,10,2013-10-03 12:35:00
7:54 AM,48.2,48.2,100,29.97,10.0,NNE,5.8,-,N/A,,Clear,20,2013-10-03 12:54:00
8:15 AM,48.2,48.2,100,29.98,10.0,NNE,5.8,-,N/A,,Clear,20,2013-10-03 13:15:00
8:35 AM,48.2,48.2,100,30.01,10.0,North,5.8,-,N/A,,Clear,350,2013-10-03 13:35:00
8:54 AM,48.2,48.2,100,30.03,10.0,NNW,8.1,-,N/A,,Clear,340,2013-10-03 13:54:00
9:15 AM,48.2,48.2,100,30.03,10.0,North,6.9,-,N/A,,Clear,10,2013-10-03 14:15:00
9:35 AM,50.0,50.0,100,30.01,10.0,NNE,8.1,-,N/A,,Clear,20,2013-10-03 14:35:00
9:54 AM,51.8,51.8,100,30.02,10.0,NNE,5.8,-,N/A,,Clear,20,2013-10-03 14:54:00
10:15 AM,51.8,51.8,100,30.01,10.0,NE,8.1,-,N/A,,Clear,40,2013-10-03 15:15:00
10:34 AM,51.8,51.8,100,30.01,10.0,NNE,8.1,-,N/A,,Clear,30,2013-10-03 15:34:00
10:55 AM,53.6,53.6,100,30.01,10.0,NNE,8.1,-,N/A,,Clear,30,2013-10-03 15:55:00
11:15 AM,55.4,53.6,94,30.00,10.0,NNE,11.5,-,N/A,,Clear,20,2013-10-03 16:15:00
11:34 AM,55.4,53.6,94,29.99,10.0,NNE,12.7,-,N/A,,Clear,20,2013-10-03 16:34:00
11:55 AM,55.4,53.6,94,29.97,10.0,NNE,15.0,-,N/A,,Clear,20,2013-10-03 16:55:00
12:15 PM,55.4,53.6,94,29.98,10.0,NNE,11.5,-,N/A,,Clear,20,2013-10-03 17:15:00
12:34 PM,55.4,53.6,94,29.98,10.0,NNE,12.7,16.1,N/A,,Clear,30,2013-10-03 17:34:00
12:55 PM,57.2,53.6,88,29.99,10.0,North,10.4,-,N/A,,Clear,10,2013-10-03 17:55:00
1:15 PM,57.2,53.6,88,30.00,10.0,NNE,9.2,-,N/A,,Clear,20,2013-10-03 18:15:00
1:34 PM,57.2,53.6,88,30.00,10.0,North,9.2,-,N/A,,Scattered Clouds,10,2013-10-03 18:34:00
1:55 PM,57.2,53.6,88,30.00,10.0,North,10.4,-,N/A,,Scattered Clouds,350,2013-10-03 18:55:00
2:14 PM,57.2,53.6,88,29.99,10.0,North,12.7,-,N/A,,Mostly Cloudy,10,2013-10-03 19:14:00
2:35 PM,57.2,51.8,82,29.98,10.0,North,17.3,-,N/A,,Mostly Cloudy,360,2013-10-03 19:35:00
2:55 PM,55.4,51.8,88,29.98,10.0,North,16.1,-,N/A,,Mostly Cloudy,360,2013-10-03 19:55:00
3:14 PM,53.6,51.8,94,29.99,10.0,North,15.0,23.0,N/A,,Mostly Cloudy,350,2013-10-03 20:14:00
3:35 PM,53.6,50.0,88,29.99,10.0,North,16.1,-,N/A,,Overcast,360,2013-10-03 20:35:00
3:55 PM,51.8,51.8,100,29.99,10.0,North,13.8,-,N/A,Rain,Light Rain,10,2013-10-03 20:55:00
4:14 PM,51.8,51.8,100,29.99,10.0,North,16.1,-,N/A,,Light Drizzle,10,2013-10-03 21:14:00
4:35 PM,53.6,50.0,88,29.99,10.0,NNE,15.0,-,N/A,,Light Drizzle,20,2013-10-03 21:35:00
4:55 PM,53.6,50.0,88,30.00,10.0,NNE,15.0,-,N/A,,Overcast,20,2013-10-03 21:55:00
5:14 PM,53.6,50.0,88,30.01,10.0,NNE,13.8,-,N/A,,Overcast,20,2013-10-03 22:14:00
5:35 PM,53.6,50.0,88,30.01,10.0,North,11.5,-,N/A,,Overcast,10,2013-10-03 22:35:00
5:55 PM,53.6,50.0,88,30.01,10.0,North,12.7,-,N/A,,Overcast,10,2013-10-03 22:55:00
6:14 PM,51.8,48.2,88,30.02,10.0,North,11.5,-,N/A,,Overcast,10,2013-10-03 23:14:00
6:35 PM,51.8,48.2,88,30.02,10.0,North,12.7,-,N/A,,Overcast,360,2013-10-03 23:35:00
6:54 PM,51.8,48.2,88,30.02,10.0,North,11.5,19.6,N/A,,Mostly Cloudy,10,2013-10-03 23:54:00
7:15 PM,51.8,48.2,88,30.04,10.0,North,12.7,-,N/A,,Mostly Cloudy,10,2013-10-04 00:15:00
7:35 PM,51.8,48.2,88,30.04,10.0,North,13.8,-,N/A,,Overcast,10,2013-10-04 00:35:00
7:54 PM,53.6,50.0,88,30.05,10.0,North,13.8,-,N/A,,Overcast,10,2013-10-04 00:54:00
8:15 PM,53.6,50.0,88,30.06,10.0,North,12.7,18.4,N/A,,Overcast,10,2013-10-04 01:15:00
8:35 PM,53.6,50.0,88,30.06,10.0,NNE,11.5,-,N/A,,Overcast,20,2013-10-04 01:35:00
8:54 PM,53.6,50.0,88,30.07,10.0,North,12.7,-,N/A,Rain,Light Rain,10,2013-10-04 01:54:00
9:15 PM,53.6,50.0,88,30.07,10.0,North,11.5,-,N/A,,Mostly Cloudy,10,2013-10-04 02:15:00
9:35 PM,51.8,50.0,94,30.07,10.0,North,11.5,-,N/A,,Scattered Clouds,10,2013-10-04 02:35:00
9:54 PM,51.8,48.2,88,30.08,10.0,North,11.5,-,N/A,,Clear,10,2013-10-04 02:54:00
10:15 PM,51.8,48.2,88,30.08,10.0,North,12.7,-,N/A,,Mostly Cloudy,10,2013-10-04 03:15:00
10:35 PM,51.8,48.2,88,30.08,10.0,North,11.5,-,N/A,,Overcast,10,2013-10-04 03:35:00
11:34 PM,51.8,48.2,88,30.08,10.0,North,13.8,-,N/A,,Mostly Cloudy,10,2013-10-04 04:34:00
11:55 PM,51.8,46.4,82,30.08,10.0,North,13.8,-,N/A,,Mostly Cloudy,10,2013-10-04 04:55:00